^^
Saratoga-Weather Station Historical Data
Daily Summary for April 09, 2021 Units:  Metric    English   Both
Daily Weekly Monthly Yearly Custom
  High: Low: Average:
Temperature: 17.3 °C 0.1 °C 8.7 °C
Dew Point: 6.5 °C -2.3 °C 0.8 °C
Humidity: 86% 33% 61%
Wind Speed: 19.5km/h 0km/h 2.8km/h
Wind Gust: 24.1km/h - -
Wind- - South
Pressure: 1019.6 hPa 1010.2 hPa -
Precipitation: 0.0 mm    
Historical Graphs
 
 
Tabular Data for April 09, 2021
Time Temperature Dew Point Pressure Wind Wind Speed Wind Gust Humidity Rainfall Rate (Hourly) solar
00:00 2.8 °C -1.7 °C 1019.6 hPa Calm     72% 0.0 mm 0 W/m2
00:05 2.8 °C -1.6 °C 1019.6 hPa Calm     73% 0.0 mm 0 W/m2
00:10 2.8 °C -1.6 °C 1019.6 hPa Calm     73% 0.0 mm 0 W/m2
00:15 2.7 °C -1.7 °C 1019.6 hPa ESE 1.4 km/h 3.2 km/h 73% 0.0 mm 0 W/m2
00:20 2.7 °C -1.5 °C 1019.6 hPa Calm     74% 0.0 mm 0 W/m2
00:25 2.7 °C -1.5 °C 1019.6 hPa Calm   3.2 km/h 74% 0.0 mm 0 W/m2
00:30 2.7 °C -1.5 °C 1019.6 hPa Calm     74% 0.0 mm 0 W/m2
00:35 2.6 °C -1.6 °C 1019.6 hPa Calm     74% 0.0 mm 0 W/m2
00:40 2.6 °C -1.6 °C 1019.6 hPa Calm     74% 0.0 mm 0 W/m2
00:45 2.5 °C -1.5 °C 1019.6 hPa Calm     75% 0.0 mm 0 W/m2
00:50 2.4 °C -1.8 °C 1019.6 hPa Calm     74% 0.0 mm 0 W/m2
00:55 2.4 °C -1.8 °C 1019.6 hPa Calm     74% 0.0 mm 0 W/m2
01:05 2.2 °C -1.8 °C 1019.3 hPa Calm     75% 0.0 mm 0 W/m2
01:10 2.1 °C -1.7 °C 1019.3 hPa Calm     76% 0.0 mm 0 W/m2
01:15 2.1 °C -1.7 °C 1019.3 hPa Calm     76% 0.0 mm 0 W/m2
01:20 2 °C -1.8 °C 1019.3 hPa Calm     76% 0.0 mm 0 W/m2
01:35 1.8 °C -1.6 °C 1019.0 hPa Calm     78% 0.0 mm 0 W/m2
01:40 1.7 °C -1.9 °C 1019.0 hPa Calm     77% 0.0 mm 0 W/m2
01:45 1.7 °C -1.7 °C 1019.0 hPa Calm     78% 0.0 mm 0 W/m2
01:50 1.6 °C -1.8 °C 1019.0 hPa Calm     78% 0.0 mm 0 W/m2
01:55 1.6 °C -1.8 °C 1018.6 hPa Calm     78% 0.0 mm 0 W/m2
02:00 1.5 °C -1.9 °C 1019.0 hPa Calm     78% 0.0 mm 0 W/m2
02:05 1.4 °C -2 °C 1019.0 hPa Calm     78% 0.0 mm 0 W/m2
02:10 1.4 °C -2 °C 1018.6 hPa Calm     78% 0.0 mm 0 W/m2
02:15 1.3 °C -2.1 °C 1018.6 hPa Calm     78% 0.0 mm 0 W/m2
02:20 1.2 °C -2 °C 1018.6 hPa Calm     79% 0.0 mm 0 W/m2
02:30 1.1 °C -2.1 °C 1018.6 hPa Calm     79% 0.0 mm 0 W/m2
02:35 1 °C -2.1 °C 1018.6 hPa Calm     80% 0.0 mm 0 W/m2
02:40 0.9 °C -2.2 °C 1018.6 hPa Calm     80% 0.0 mm 0 W/m2
02:45 0.9 °C -2.2 °C 1018.6 hPa Calm     80% 0.0 mm 0 W/m2
02:50 0.8 °C -2.3 °C 1018.6 hPa Calm     80% 0.0 mm 0 W/m2
02:55 0.8 °C -2.1 °C 1018.6 hPa Calm     81% 0.0 mm 0 W/m2
03:00 0.7 °C -2.2 °C 1018.3 hPa Calm     81% 0.0 mm 0 W/m2
03:05 0.6 °C -2.1 °C 1018.3 hPa Calm     82% 0.0 mm 0 W/m2
03:15 0.5 °C -2.2 °C 1018.3 hPa Calm     82% 0.0 mm 0 W/m2
03:20 0.4 °C -2.3 °C 1018.3 hPa Calm     82% 0.0 mm 0 W/m2
03:25 0.4 °C -2.3 °C 1018.3 hPa Calm     82% 0.0 mm 0 W/m2
03:30 0.3 °C -2.2 °C 1018.3 hPa Calm     83% 0.0 mm 0 W/m2
03:35 0.3 °C -2.2 °C 1018.3 hPa Calm     83% 0.0 mm 0 W/m2
03:40 0.3 °C -2.2 °C 1018.0 hPa Calm     83% 0.0 mm 0 W/m2
03:46 0.3 °C -2.2 °C 1018.0 hPa Calm     83% 0.0 mm 0 W/m2
03:56 0.2 °C -2.2 °C 1018.0 hPa Calm     84% 0.0 mm 0 W/m2
04:01 0.2 °C -2.2 °C 1018.0 hPa Calm     84% 0.0 mm 0 W/m2
04:11 0.2 °C -2.2 °C 1018.0 hPa Calm     84% 0.0 mm 0 W/m2
04:16 0.2 °C -2.2 °C 1018.0 hPa Calm     84% 0.0 mm 0 W/m2
04:21 0.1 °C -2.3 °C 1018.0 hPa Calm     84% 0.0 mm 0 W/m2
04:26 0.1 °C -2.3 °C 1018.0 hPa Calm     84% 0.0 mm 0 W/m2
04:36 0.1 °C -2.3 °C 1017.6 hPa Calm     84% 0.0 mm 0 W/m2
04:41 0.1 °C -2.1 °C 1017.6 hPa Calm     85% 0.0 mm 0 W/m2
04:51 0.1 °C -2.1 °C 1017.6 hPa Calm     85% 0.0 mm 0 W/m2
04:56 0.1 °C -2.1 °C 1017.6 hPa ESE 1.4 km/h 1.6 km/h 85% 0.0 mm 0 W/m2
05:01 0.1 °C -2.3 °C 1017.6 hPa Calm     84% 0.0 mm 0 W/m2
05:06 0.1 °C -2.1 °C 1017.6 hPa ESE 1.4 km/h 3.2 km/h 85% 0.0 mm 0 W/m2
05:11 0.1 °C -2.1 °C 1017.6 hPa Calm     85% 0.0 mm 0 W/m2
05:16 0.1 °C -2.1 °C 1017.6 hPa Calm     85% 0.0 mm 0 W/m2
05:21 0.1 °C -2.1 °C 1017.3 hPa Calm     85% 0.0 mm 0 W/m2
05:26 0.1 °C -2.1 °C 1017.3 hPa Calm     85% 0.0 mm 0 W/m2
05:31 0.1 °C -2.1 °C 1017.3 hPa Calm     85% 0.0 mm 0 W/m2
05:36 0.1 °C -2.1 °C 1017.3 hPa Calm     85% 0.0 mm 0 W/m2
05:41 0.1 °C -2 °C 1016.9 hPa Calm     86% 0.0 mm 0 W/m2
05:46 0.2 °C -2 °C 1017.3 hPa Calm     85% 0.0 mm 0 W/m2
05:51 0.2 °C -2 °C 1016.9 hPa Calm     85% 0.0 mm 0 W/m2
05:56 0.2 °C -2 °C 1017.3 hPa Calm     85% 0.0 mm 0 W/m2
06:01 0.2 °C -2 °C 1017.3 hPa Calm     85% 0.0 mm 0 W/m2
06:06 0.2 °C -2 °C 1017.3 hPa Calm     85% 0.0 mm 0 W/m2
06:11 0.2 °C -2 °C 1017.3 hPa Calm     85% 0.0 mm 0 W/m2
06:16 0.2 °C -2 °C 1017.3 hPa Calm     85% 0.0 mm 0 W/m2
06:21 0.2 °C -2 °C 1017.3 hPa Calm     85% 0.0 mm 0 W/m2
06:26 0.2 °C -2 °C 1017.3 hPa Calm     85% 0.0 mm 0 W/m2
06:31 0.2 °C -2 °C 1017.3 hPa Calm     85% 0.0 mm 0 W/m2
06:36 0.2 °C -2 °C 1017.3 hPa Calm     85% 0.0 mm 0 W/m2
06:41 0.2 °C -2 °C 1016.9 hPa Calm     85% 0.0 mm 0 W/m2
06:46 0.2 °C -2 °C 1016.9 hPa Calm     85% 0.0 mm 0 W/m2
06:51 0.2 °C -2 °C 1016.9 hPa Calm     85% 0.0 mm 0 W/m2
06:56 0.2 °C -2 °C 1016.9 hPa Calm     85% 0.0 mm 0 W/m2
07:06 0.2 °C -1.9 °C 1016.9 hPa SE 1.4 km/h 3.2 km/h 86% 0.0 mm 7 W/m2
07:11 0.2 °C -1.9 °C 1016.9 hPa Calm     86% 0.0 mm 11 W/m2
07:16 0.2 °C -1.9 °C 1016.6 hPa Calm     86% 0.0 mm 14 W/m2
07:21 0.2 °C -1.9 °C 1016.6 hPa Calm     86% 0.0 mm 18 W/m2
07:26 0.2 °C -1.9 °C 1016.6 hPa Calm     86% 0.0 mm 19 W/m2
07:31 0.2 °C -1.9 °C 1016.6 hPa Calm     86% 0.0 mm 23 W/m2
07:36 0.3 °C -1.8 °C 1016.6 hPa Calm     86% 0.0 mm 25 W/m2
07:41 0.3 °C -1.8 °C 1016.6 hPa Calm     86% 0.0 mm 30 W/m2
07:46 0.4 °C -1.7 °C 1016.6 hPa Calm     86% 0.0 mm 40 W/m2
07:51 0.4 °C -1.7 °C 1016.9 hPa Calm     86% 0.0 mm 47 W/m2
07:56 0.5 °C -1.6 °C 1016.6 hPa Calm     86% 0.0 mm 51 W/m2
08:01 0.7 °C -1.4 °C 1016.6 hPa Calm     86% 0.0 mm 58 W/m2
08:06 0.7 °C -1.4 °C 1016.6 hPa Calm     86% 0.0 mm 67 W/m2
08:11 0.9 °C -1.2 °C 1016.6 hPa Calm     86% 0.0 mm 76 W/m2
08:16 1.1 °C -1 °C 1016.6 hPa Calm   1.6 km/h 86% 0.0 mm 79 W/m2
08:21 1.3 °C -0.9 °C 1016.6 hPa Calm   1.6 km/h 85% 0.0 mm 105 W/m2
08:26 1.4 °C -0.8 °C 1016.6 hPa Calm   3.2 km/h 85% 0.0 mm 105 W/m2
08:31 1.7 °C -0.7 °C 1016.6 hPa ENE 3.2 km/h 3.2 km/h 84% 0.0 mm 123 W/m2
08:36 1.9 °C -0.7 °C 1016.6 hPa ENE 1.4 km/h 4.8 km/h 83% 0.0 mm 149 W/m2
08:41 2.1 °C -0.7 °C 1016.6 hPa ENE 1.4 km/h 1.6 km/h 82% 0.0 mm 153 W/m2
08:46 2.3 °C -0.5 °C 1016.6 hPa Calm   4.8 km/h 82% 0.0 mm 186 W/m2
08:51 2.6 °C -0.3 °C 1016.6 hPa Calm   3.2 km/h 81% 0.0 mm 227 W/m2
08:56 3 °C -0.1 °C 1016.6 hPa ESE 1.4 km/h 4.8 km/h 80% 0.0 mm 295 W/m2
09:01 3.3 °C -0.3 °C 1016.6 hPa Calm   4.8 km/h 77% 0.0 mm 216 W/m2
09:06 3.6 °C -0.2 °C 1016.6 hPa ESE 1.4 km/h 3.2 km/h 76% 0.0 mm 167 W/m2
09:11 3.7 °C -0.3 °C 1016.6 hPa ESE 3.2 km/h 3.2 km/h 75% 0.0 mm 146 W/m2
09:16 3.8 °C -0.2 °C 1016.6 hPa WNW 1.4 km/h 4.8 km/h 75% 0.0 mm 165 W/m2
09:21 3.8 °C -0.2 °C 1016.6 hPa Calm   1.6 km/h 75% 0.0 mm 251 W/m2
09:26 3.9 °C -0.1 °C 1016.6 hPa Calm     75% 0.0 mm 248 W/m2
09:31 4.1 °C -0.1 °C 1016.6 hPa Calm     74% 0.0 mm 223 W/m2
09:36 4.3 °C -0.1 °C 1016.6 hPa Calm   1.6 km/h 73% 0.0 mm 250 W/m2
09:41 4.6 °C 0.2 °C 1016.6 hPa NE 3.2 km/h 4.8 km/h 73% 0.0 mm 309 W/m2
09:46 4.9 °C 0.1 °C 1016.6 hPa ESE 3.2 km/h 4.8 km/h 71% 0.0 mm 323 W/m2
09:51 5.2 °C 0.2 °C 1016.6 hPa ENE 1.4 km/h 1.6 km/h 70% 0.0 mm 304 W/m2
09:56 5.4 °C 0.2 °C 1016.3 hPa ENE 3.2 km/h 4.8 km/h 69% 0.0 mm 396 W/m2
10:01 5.7 °C 0.7 °C 1016.3 hPa ESE 3.2 km/h 3.2 km/h 70% 0.0 mm 427 W/m2
10:06 6.2 °C 0.7 °C 1016.3 hPa East 3.2 km/h 3.2 km/h 68% 0.0 mm 396 W/m2
10:11 6.5 °C 0.8 °C 1016.3 hPa East 1.4 km/h 4.8 km/h 67% 0.0 mm 445 W/m2
10:16 6.8 °C 0.7 °C 1016.3 hPa Calm   3.2 km/h 65% 0.0 mm 494 W/m2
10:21 7.1 °C 1 °C 1016.3 hPa East 1.4 km/h 9.7 km/h 65% 0.0 mm 366 W/m2
10:26 7.3 °C 0.9 °C 1016.3 hPa East 4.7 km/h 6.4 km/h 64% 0.0 mm 466 W/m2
10:31 7.6 °C 1 °C 1016.3 hPa ESE 4.7 km/h 11.3 km/h 63% 0.0 mm 292 W/m2
10:36 7.7 °C 1.3 °C 1016.3 hPa ESE 4.7 km/h 6.4 km/h 64% 0.0 mm 348 W/m2
10:41 7.9 °C 1.1 °C 1016.3 hPa East 3.2 km/h 4.8 km/h 62% 0.0 mm 512 W/m2
10:46 8.2 °C 0.9 °C 1016.3 hPa East 4.7 km/h 6.4 km/h 60% 0.0 mm 468 W/m2
10:51 8.6 °C 1.3 °C 1016.3 hPa East 6.4 km/h 9.7 km/h 60% 0.0 mm 473 W/m2
10:56 8.8 °C 1.2 °C 1016.3 hPa ENE 1.4 km/h 8 km/h 59% 0.0 mm 490 W/m2
11:01 9.1 °C 1 °C 1016.3 hPa NNE 4.7 km/h 8 km/h 57% 0.0 mm 592 W/m2
11:06 9.4 °C 1.1 °C 1015.9 hPa East 4.7 km/h 11.3 km/h 56% 0.0 mm 548 W/m2
11:11 9.7 °C 0.8 °C 1015.9 hPa ENE 1.4 km/h 8 km/h 54% 0.0 mm 624 W/m2
11:16 10.1 °C 1.2 °C 1015.9 hPa NNE 3.2 km/h 4.8 km/h 54% 0.0 mm 624 W/m2
11:22 10.4 °C 1.5 °C 1015.9 hPa Calm   1.6 km/h 54% 0.0 mm 626 W/m2
11:27 11 °C 1.8 °C 1015.9 hPa East 4.7 km/h 4.8 km/h 53% 0.0 mm 671 W/m2
11:32 11.3 °C 1.2 °C 1015.9 hPa ENE 6.4 km/h 6.4 km/h 50% 0.0 mm 661 W/m2
11:37 11.3 °C 1.2 °C 1015.9 hPa WNW 4.7 km/h 6.4 km/h 50% 0.0 mm 671 W/m2
11:42 11.5 °C 1.2 °C 1015.6 hPa North 1.4 km/h 6.4 km/h 49% 0.0 mm 675 W/m2
11:47 11.7 °C 1.3 °C 1015.6 hPa ENE 4.7 km/h 4.8 km/h 49% 0.0 mm 693 W/m2
11:52 12.1 °C 1.1 °C 1015.6 hPa ESE 1.4 km/h 3.2 km/h 47% 0.0 mm 710 W/m2
11:57 12.4 °C 0.5 °C 1015.6 hPa ESE 4.7 km/h 8 km/h 44% 0.0 mm 650 W/m2
12:02 12.8 °C -0.1 °C 1015.6 hPa NW 1.4 km/h 6.4 km/h 41% 0.0 mm 710 W/m2
12:07 13.1 °C -0.5 °C 1015.2 hPa NNW 1.4 km/h 4.8 km/h 39% 0.0 mm 668 W/m2
12:12 13.2 °C -0.1 °C 1015.2 hPa NNW 1.4 km/h 12.9 km/h 40% 0.0 mm 647 W/m2
12:17 13.5 °C 0.2 °C 1015.2 hPa NNE 3.2 km/h 3.2 km/h 40% 0.0 mm 701 W/m2
12:22 13.9 °C 0.2 °C 1015.2 hPa SSE 4.7 km/h 12.9 km/h 39% 0.0 mm 742 W/m2
12:27 14.2 °C -0.3 °C 1015.2 hPa WNW 1.4 km/h 11.3 km/h 37% 0.0 mm 733 W/m2
12:32 14.1 °C -0.4 °C 1015.2 hPa East 3.2 km/h 9.7 km/h 37% 0.0 mm 330 W/m2
12:37 14 °C -0.1 °C 1015.2 hPa WNW 3.2 km/h 14.5 km/h 38% 0.0 mm 749 W/m2
12:42 13.8 °C -0.6 °C 1015.2 hPa ENE 7.9 km/h 8 km/h 37% 0.0 mm 710 W/m2
12:47 13.9 °C -1.3 °C 1015.2 hPa West 11.1 km/h 16.1 km/h 35% 0.0 mm 663 W/m2
12:52 14.1 °C -0.8 °C 1014.9 hPa West 19.5 km/h 19.3 km/h 36% 0.0 mm 773 W/m2
12:57 14.1 °C -0.4 °C 1014.9 hPa East 1.4 km/h 11.3 km/h 37% 0.0 mm 675 W/m2
13:02 14.1 °C -0.8 °C 1014.9 hPa Calm   12.9 km/h 36% 0.0 mm 740 W/m2
13:07 14.2 °C -0.3 °C 1014.9 hPa SSE 6.4 km/h 17.7 km/h 37% 0.0 mm 810 W/m2
13:12 14.3 °C 0.2 °C 1014.9 hPa West 11.1 km/h 16.1 km/h 38% 0.0 mm 814 W/m2
13:17 14.4 °C -0.1 °C 1014.6 hPa WSW 9.7 km/h 17.7 km/h 37% 0.0 mm 740 W/m2
13:22 14.4 °C -0.1 °C 1014.9 hPa ENE 4.7 km/h 9.7 km/h 37% 0.0 mm 383 W/m2
13:32 14.4 °C 0.6 °C 1014.6 hPa ENE 4.7 km/h 6.4 km/h 39% 0.0 mm 666 W/m2
13:37 14.5 °C 0.3 °C 1014.6 hPa NW 7.9 km/h 17.7 km/h 38% 0.0 mm 772 W/m2
13:42 14.3 °C 0.2 °C 1014.6 hPa NNW 4.7 km/h 11.3 km/h 38% 0.0 mm 267 W/m2
13:47 14.2 °C 0.4 °C 1014.6 hPa WNW 4.7 km/h 17.7 km/h 39% 0.0 mm 295 W/m2
14:02 14.8 °C 0.2 °C 1014.6 hPa North 4.7 km/h 14.5 km/h 37% 0.0 mm 751 W/m2
14:07 14.9 °C 0.3 °C 1014.2 hPa NNW 6.4 km/h 17.7 km/h 37% 0.0 mm 533 W/m2
14:17 15.3 °C 0.7 °C 1014.2 hPa West 6.4 km/h 12.9 km/h 37% 0.0 mm 737 W/m2
14:22 15.4 °C 0 °C 1014.2 hPa NW 3.2 km/h 11.3 km/h 35% 0.0 mm 636 W/m2
14:27 15.4 °C 0.4 °C 1014.2 hPa NW 3.2 km/h 12.9 km/h 36% 0.0 mm 775 W/m2
14:32 15.6 °C 0.2 °C 1013.9 hPa NE 3.2 km/h 4.8 km/h 35% 0.0 mm 643 W/m2
14:37 15.9 °C 0.1 °C 1013.9 hPa WNW 4.7 km/h 12.9 km/h 34% 0.0 mm 824 W/m2
14:42 16.2 °C 0.3 °C 1013.9 hPa NW 14.3 km/h 14.5 km/h 34% 0.0 mm 773 W/m2
14:47 16.4 °C 0.1 °C 1013.9 hPa NW 7.9 km/h 17.7 km/h 33% 0.0 mm 694 W/m2
14:57 16.6 °C 0.3 °C 1013.5 hPa WNW 11.1 km/h 17.7 km/h 33% 0.0 mm 719 W/m2
15:02 16.7 °C 0.3 °C 1013.5 hPa WNW 11.1 km/h 12.9 km/h 33% 0.0 mm 717 W/m2
15:07 16.7 °C 0.8 °C 1013.5 hPa SW 4.7 km/h 8 km/h 34% 0.0 mm 729 W/m2
15:12 16.7 °C 0.3 °C 1013.5 hPa WSW 1.4 km/h 12.9 km/h 33% 0.0 mm 721 W/m2
15:22 16.8 °C 0.4 °C 1013.2 hPa West 13 km/h 16.1 km/h 33% 0.0 mm 694 W/m2
15:32 17.1 °C 1.1 °C 1013.2 hPa West 4.7 km/h 14.5 km/h 34% 0.0 mm 666 W/m2
15:37 17.3 °C 0.9 °C 1013.2 hPa NNW 1.4 km/h 4.8 km/h 33% 0.0 mm 722 W/m2
15:42 17.3 °C 0.9 °C 1013.2 hPa WNW 4.7 km/h 22.5 km/h 33% 0.0 mm 403 W/m2
15:47 17.1 °C 1.1 °C 1012.9 hPa WNW 14.3 km/h 19.3 km/h 34% 0.0 mm 403 W/m2
15:52 17.1 °C 1.5 °C 1012.9 hPa NW 3.2 km/h 12.9 km/h 35% 0.0 mm 582 W/m2
15:57 17.3 °C 1.3 °C 1012.9 hPa West 16.3 km/h 19.3 km/h 34% 0.0 mm 529 W/m2
16:02 17.2 °C 1.2 °C 1012.9 hPa WSW 11.1 km/h 20.9 km/h 34% 0.0 mm 271 W/m2
16:12 17.1 °C 1.5 °C 1012.9 hPa NNW 3.2 km/h 20.9 km/h 35% 0.0 mm 436 W/m2
16:17 16.9 °C 1.3 °C 1012.9 hPa West 6.4 km/h 12.9 km/h 35% 0.0 mm 204 W/m2
16:22 16.8 °C 1.2 °C 1012.9 hPa West 4.7 km/h 11.3 km/h 35% 0.0 mm 313 W/m2
16:27 16.8 °C 1.2 °C 1012.9 hPa West 1.4 km/h 16.1 km/h 35% 0.0 mm 341 W/m2
16:32 16.9 °C 1.3 °C 1012.9 hPa WNW 6.4 km/h 12.9 km/h 35% 0.0 mm 267 W/m2
16:37 16.8 °C 1.2 °C 1012.9 hPa NW 4.7 km/h 14.5 km/h 35% 0.0 mm 357 W/m2
16:47 17.1 °C 1.5 °C 1012.9 hPa WSW 6.4 km/h 19.3 km/h 35% 0.0 mm 568 W/m2
16:57 16.8 °C 1.6 °C 1012.9 hPa WNW 7.9 km/h 11.3 km/h 36% 0.0 mm 165 W/m2
17:02 16.8 °C 1.6 °C 1012.9 hPa WSW 6.4 km/h 24.1 km/h 36% 0.0 mm 200 W/m2
17:07 16.7 °C 1.6 °C 1012.9 hPa NW 3.2 km/h 16.1 km/h 36% 0.0 mm 202 W/m2
17:12 16.7 °C 1.6 °C 1012.9 hPa West 4.7 km/h 12.9 km/h 36% 0.0 mm 155 W/m2
17:17 16.7 °C 1.9 °C 1012.5 hPa West 11.1 km/h 14.5 km/h 37% 0.0 mm 134 W/m2
17:27 16.6 °C 1.8 °C 1012.5 hPa WSW 13 km/h 14.5 km/h 37% 0.0 mm 135 W/m2
17:37 16.6 °C 1.8 °C 1012.5 hPa West 9.7 km/h 12.9 km/h 37% 0.0 mm 141 W/m2
17:42 16.6 °C 1.8 °C 1012.5 hPa West 6.4 km/h 12.9 km/h 37% 0.0 mm 91 W/m2
17:47 16.4 °C 2 °C 1012.2 hPa NNW 3.2 km/h 8 km/h 38% 0.0 mm 158 W/m2
17:52 16.5 °C 1.8 °C 1012.2 hPa WSW 4.7 km/h 11.3 km/h 37% 0.0 mm 174 W/m2
17:57 16.4 °C 1.7 °C 1012.2 hPa WSW 13 km/h 22.5 km/h 37% 0.0 mm 144 W/m2
18:02 16.4 °C 2 °C 1012.2 hPa West 4.7 km/h 14.5 km/h 38% 0.0 mm 139 W/m2
18:07 16.4 °C 1.7 °C 1012.2 hPa West 4.7 km/h 22.5 km/h 37% 0.0 mm 116 W/m2
18:12 16.3 °C 1.6 °C 1012.2 hPa WSW 11.1 km/h 20.9 km/h 37% 0.0 mm 102 W/m2
18:17 16.3 °C 2 °C 1012.2 hPa WNW 3.2 km/h 8 km/h 38% 0.0 mm 118 W/m2
18:22 16.3 °C 1.6 °C 1012.2 hPa West 4.7 km/h 20.9 km/h 37% 0.0 mm 97 W/m2
18:27 16.2 °C 1.9 °C 1012.2 hPa NW 4.7 km/h 8 km/h 38% 0.0 mm 63 W/m2
18:32 16.1 °C 1.8 °C 1012.2 hPa NW 6.4 km/h 11.3 km/h 38% 0.0 mm 65 W/m2
18:37 16.1 °C 1.8 °C 1012.2 hPa WNW 14.3 km/h 14.5 km/h 38% 0.0 mm 65 W/m2
18:42 16 °C 1.7 °C 1012.2 hPa West 4.7 km/h 6.4 km/h 38% 0.0 mm 70 W/m2
18:47 15.9 °C 2 °C 1012.2 hPa WNW 11.1 km/h 11.3 km/h 39% 0.0 mm 62 W/m2
18:52 15.9 °C 2 °C 1011.9 hPa WSW 4.7 km/h 9.7 km/h 39% 0.0 mm 47 W/m2
18:57 15.9 °C 2.7 °C 1011.9 hPa WNW 3.2 km/h 3.2 km/h 41% 0.0 mm 69 W/m2
19:02 15.8 °C 2.2 °C 1012.2 hPa West 3.2 km/h 9.7 km/h 40% 0.0 mm 63 W/m2
19:07 15.8 °C 2.2 °C 1012.2 hPa Calm   1.6 km/h 40% 0.0 mm 46 W/m2
19:12 15.8 °C 2.2 °C 1012.2 hPa SW 1.4 km/h 9.7 km/h 40% 0.0 mm 35 W/m2
19:17 15.8 °C 2.6 °C 1012.2 hPa WNW 3.2 km/h 8 km/h 41% 0.0 mm 26 W/m2
19:22 15.7 °C 2.5 °C 1011.9 hPa NNW 1.4 km/h 3.2 km/h 41% 0.0 mm 16 W/m2
19:27 15.7 °C 2.8 °C 1011.9 hPa Calm   4.8 km/h 42% 0.0 mm 18 W/m2
19:32 15.6 °C 3.1 °C 1012.2 hPa SW 3.2 km/h 6.4 km/h 43% 0.0 mm 18 W/m2
19:37 15.6 °C 3.4 °C 1012.2 hPa NE 6.4 km/h 11.3 km/h 44% 0.0 mm 9 W/m2
19:42 15.6 °C 4 °C 1012.2 hPa NW 3.2 km/h 12.9 km/h 46% 0.0 mm 7 W/m2
19:47 15.3 °C 4.4 °C 1012.2 hPa NW 6.4 km/h 14.5 km/h 48% 0.0 mm 11 W/m2
19:52 15.2 °C 4.6 °C 1012.2 hPa NNW 3.2 km/h 16.1 km/h 49% 0.0 mm 7 W/m2
19:57 15 °C 4.7 °C 1012.2 hPa West 13 km/h 12.9 km/h 50% 0.0 mm 9 W/m2
20:03 14.8 °C 4.8 °C 1012.2 hPa NW 3.2 km/h 14.5 km/h 51% 0.0 mm 7 W/m2
20:08 14.8 °C 4.8 °C 1011.9 hPa NW 3.2 km/h 8 km/h 51% 0.0 mm 5 W/m2
20:13 14.7 °C 4.9 °C 1011.9 hPa NNE 3.2 km/h 9.7 km/h 52% 0.0 mm 0 W/m2
20:18 14.5 °C 4.8 °C 1011.9 hPa West 4.7 km/h 6.4 km/h 52% 0.0 mm 0 W/m2
20:23 14.4 °C 4.9 °C 1011.9 hPa WNW 3.2 km/h 6.4 km/h 53% 0.0 mm 0 W/m2
20:28 14.3 °C 4.8 °C 1011.9 hPa East 1.4 km/h 19.3 km/h 53% 0.0 mm 0 W/m2
20:33 14.3 °C 4.8 °C 1011.9 hPa NNE 1.4 km/h 8 km/h 53% 0.0 mm 0 W/m2
20:38 14.2 °C 5 °C 1011.9 hPa NNW 4.7 km/h 19.3 km/h 54% 0.0 mm 0 W/m2
20:43 14.1 °C 5.2 °C 1011.9 hPa NE 4.7 km/h 4.8 km/h 55% 0.0 mm 0 W/m2
20:48 14 °C 5.1 °C 1011.9 hPa NE 1.4 km/h 4.8 km/h 55% 0.0 mm 0 W/m2
20:53 13.9 °C 5.3 °C 1011.5 hPa ENE 3.2 km/h 8 km/h 56% 0.0 mm 0 W/m2
20:58 13.8 °C 5.4 °C 1011.5 hPa NE 1.4 km/h 1.6 km/h 57% 0.0 mm 0 W/m2
21:03 13.8 °C 5.4 °C 1011.5 hPa NNW 4.7 km/h 4.8 km/h 57% 0.0 mm 0 W/m2
21:08 13.7 °C 5.6 °C 1011.5 hPa ENE 3.2 km/h 4.8 km/h 58% 0.0 mm 0 W/m2
21:13 13.6 °C 5.5 °C 1011.5 hPa NE 3.2 km/h 3.2 km/h 58% 0.0 mm 0 W/m2
21:18 13.5 °C 5.6 °C 1011.5 hPa ENE 1.4 km/h 1.6 km/h 59% 0.0 mm 0 W/m2
21:23 13.4 °C 5.5 °C 1011.5 hPa ENE 1.4 km/h 3.2 km/h 59% 0.0 mm 0 W/m2
21:28 13.3 °C 5.7 °C 1011.5 hPa Calm   1.6 km/h 60% 0.0 mm 0 W/m2
21:33 13.2 °C 5.8 °C 1011.5 hPa Calm   1.6 km/h 61% 0.0 mm 0 W/m2
21:38 13.1 °C 5.7 °C 1011.5 hPa Calm     61% 0.0 mm 0 W/m2
21:43 12.9 °C 5.8 °C 1011.2 hPa Calm     62% 0.0 mm 0 W/m2
21:48 12.8 °C 5.9 °C 1011.2 hPa Calm   1.6 km/h 63% 0.0 mm 0 W/m2
21:53 12.6 °C 5.7 °C 1011.2 hPa Calm   1.6 km/h 63% 0.0 mm 0 W/m2
21:58 12.6 °C 5.7 °C 1011.2 hPa ENE 1.4 km/h 4.8 km/h 63% 0.0 mm 0 W/m2
22:03 12.6 °C 5.7 °C 1011.2 hPa East 1.4 km/h 6.4 km/h 63% 0.0 mm 0 W/m2
22:08 12.7 °C 5.6 °C 1010.8 hPa Calm   9.7 km/h 62% 0.0 mm 0 W/m2
22:13 12.8 °C 5.7 °C 1010.8 hPa ENE 4.7 km/h 6.4 km/h 62% 0.0 mm 0 W/m2
22:18 13 °C 5.7 °C 1010.8 hPa ENE 4.7 km/h 8 km/h 61% 0.0 mm 0 W/m2
22:23 13.1 °C 5.7 °C 1010.8 hPa ENE 3.2 km/h 4.8 km/h 61% 0.0 mm 0 W/m2
22:28 13.1 °C 6 °C 1010.8 hPa East 1.4 km/h 4.8 km/h 62% 0.0 mm 0 W/m2
22:33 13 °C 6.1 °C 1010.8 hPa ENE 4.7 km/h 6.4 km/h 63% 0.0 mm 0 W/m2
22:38 12.9 °C 6 °C 1010.8 hPa ENE 3.2 km/h 6.4 km/h 63% 0.0 mm 0 W/m2
22:43 12.8 °C 6.2 °C 1010.8 hPa ENE 3.2 km/h 4.8 km/h 64% 0.0 mm 0 W/m2
22:48 12.7 °C 6.1 °C 1010.8 hPa NE 1.4 km/h 6.4 km/h 64% 0.0 mm 0 W/m2
22:53 12.7 °C 6.1 °C 1010.8 hPa NE 4.7 km/h 6.4 km/h 64% 0.0 mm 0 W/m2
22:58 12.7 °C 6.1 °C 1010.8 hPa NE 3.2 km/h 6.4 km/h 64% 0.0 mm 0 W/m2
23:03 12.7 °C 6.3 °C 1010.8 hPa Calm   1.6 km/h 65% 0.0 mm 0 W/m2
23:08 12.6 °C 6.2 °C 1010.8 hPa Calm   1.6 km/h 65% 0.0 mm 0 W/m2
23:13 12.5 °C 6.3 °C 1010.5 hPa NE 4.7 km/h 6.4 km/h 66% 0.0 mm 0 W/m2
23:18 12.4 °C 6.2 °C 1010.8 hPa WNW 1.4 km/h 9.7 km/h 66% 0.0 mm 0 W/m2
23:23 12.6 °C 6 °C 1010.5 hPa ENE 4.7 km/h 4.8 km/h 64% 0.0 mm 0 W/m2
23:28 12.8 °C 6.2 °C 1010.5 hPa NNW 1.4 km/h 8 km/h 64% 0.0 mm 0 W/m2
23:33 13.2 °C 6.3 °C 1010.5 hPa ENE 3.2 km/h 8 km/h 63% 0.0 mm 0 W/m2
23:38 13.4 °C 6.3 °C 1010.2 hPa NNE 1.4 km/h 4.8 km/h 62% 0.0 mm 0 W/m2
23:43 13.5 °C 6.4 °C 1010.5 hPa NNE 9.7 km/h 12.9 km/h 62% 0.0 mm 0 W/m2
23:48 13.6 °C 6.5 °C 1010.2 hPa NW 1.4 km/h 1.6 km/h 62% 0.0 mm 0 W/m2
23:53 13.6 °C 6.5 °C 1010.5 hPa NW 1.4 km/h 9.7 km/h 62% 0.0 mm 0 W/m2
Juneau County Weather
Compliments of Weather Underground - 4 mb